Regional Weather Roundup
Issued by NWS Upton, NY

Current Version | Previous Version | Text Only | Print | Product List | Glossary On
Versions: 1 2 3 4 5 6 7 8 9 10 11 12 13 14 15 16 17 18 19 20 21 22 23 24 25 26 27 28 29 30 31 32 33 34 35 36 37 38 39 40 41 42 43 44 45 46 47 48 49 50
000 ASUS41 KOKX 020708 RWROKX REGIONAL WEATHER ROUNDUP NATIONAL WEATHER SERVICE NEW YORK NY 300 AM EDT THU JUL 02 2015 NOTE: "FAIR" INDICATES FEW OR NO CLOUDS BELOW 12,000 FEET WITH NO SIGNIFICANT WEATHER AND/OR OBSTRUCTIONS TO VISIBILITY. NYZ071-072-176-178-NJZ106-104-020800- NEW YORK CITY METRO AREA CITY SKY/WX TMP DP RH WIND PRES REMARKS CENTRAL PARK CLEAR 72 58 61 CALM 29.90S LAGUARDIA APRT CLEAR 71 61 70 NW6 29.87S KENNEDY INTL PTCLDY 74 59 59 NW7 29.87F NEWARK/LIBERTY PTCLDY 71 60 68 CALM 29.87S BRNX BOT. GARD N/A 70 59 68 N1 29.88R TETERBORO CLEAR 70 59 68 CALM 29.86F $$ NYZ177-179-078>081-020800- LONG ISLAND NEW YORK CITY SKY/WX TMP DP RH WIND PRES REMARKS FARMINGDALE CLEAR 72 59 63 NW3 29.87S ISLIP CLEAR 67 59 75 NW5 29.85S SHIRLEY CLEAR 63 60 90 CALM 29.87S WESTHAMPTON CLEAR 61 60 97 CALM 29.88S FOG MONTAUK POINT N/A 69 61 75 W3 29.87S $$ NYZ052-065-067-020800- HUDSON VALLEY CITY SKY/WX TMP DP RH WIND PRES REMARKS WHITE PLAINS CLEAR 65 58 78 CALM 29.87F NEWBURGH CLEAR 63 59 88 CALM 29.90F MONTGOMERY CLEAR 60 57 89 CALM 29.88F POUGHKEEPSIE CLEAR 63 58 83 CALM 29.86F ALBANY CLEAR 61 56 83 W5 29.86F $$ NJZ001-105-106-008-010-013-015-019>022-104-020800- NEW JERSEY CITY SKY/WX TMP DP RH WIND PRES REMARKS NEWARK/LIBERTY PTCLDY 71 60 68 CALM 29.87S TETERBORO CLEAR 70 59 68 CALM 29.86F CALDWELL CLEAR 65 59 81 CALM 29.88F MORRISTOWN NOT AVBL SOMERVILLE CLEAR 61 58 90 CALM 29.87S FOG SUSSEX PTCLDY 59 57 93 CALM 29.90S FOG ANDOVER N/A 60 59 96 CALM 29.90F TRENTON CLEAR 67 59 75 CALM 29.88S MILLVILLE PTCLDY 69 67 93 NW3 29.88F FOG ATLANTIC CITY MOCLDY 70 68 93 CALM 29.89S FOG WRIGHTSTOWN CLEAR 64 62 95 CALM 29.86F TOMS RIVER PTCLDY 64 63 94 CALM 29.89S BELMAR CLEAR 66 57 72 CALM 29.88F $$ PAZ047>061-062-071-020800- EASTERN PENNSYLVANIA CITY SKY/WX TMP DP RH WIND PRES REMARKS PHILADELPHIA PTCLDY 71 59 65 CALM 29.89F ALLENTOWN CLEAR 62 59 90 CALM 29.89F FOG SCRANTON CLEAR 59 56 89 SE3 29.92R $$ CTZ002-004>006-009-010-012-RIZ004-006-007-MAZ004-011-015-020800- SOUTHERN NEW ENGLAND IN CT CITY SKY/WX TMP DP RH WIND PRES REMARKS BRADLEY INTL CLEAR 61 57 87 W3 29.85S HARTFORD CLEAR 63 60 90 SE7 29.85F DANBURY CLEAR 61 56 83 SW6 29.89F WTRBRY/OXFORD CLEAR 64 55 72 CALM 29.88F BRIDGEPORT CLEAR 70 60 70 NW6 29.86S MERIDEN CLEAR 61 59 93 CALM 29.85F NEW HAVEN CLEAR 68 60 75 N3 29.85S CHESTER FAIR 66 59 77 W3 29.87R GROTON CLEAR 63 61 93 CALM 29.85S WILLIMANTIC CLEAR 62 59 90 CALM 29.86F IN RI CITY SKY/WX TMP DP RH WIND PRES REMARKS PROVIDENCE CLEAR 66 59 78 W7 29.85S BLOCK ISLAND PTCLDY 66 61 82 NW3 29.85S WESTERLY CLEAR 64 61 90 CALM 29.85F IN MA CITY SKY/WX TMP DP RH WIND PRES REMARKS BOSTON CLEAR 67 58 72 SW9 29.82S WORCESTER CLEAR 62 55 77 W10 29.86S WESTFIELD CLEAR 60 56 86 CALM 29.86S PROVINCETOWN PTCLDY 61 7 11 SW7 29.83S NANTUCKET MOCLDY 66 63 90 W8 29.85S $$ ANZ330-335-338-340-345-350-353-355-020800- COASTAL MARINE OBSERVATIONS STATION/POSITION TIME SKY/WX TEMP WIND PRES VSBY WAVE AIR SEA DIR/SP/G HT/PER (UTC) (F) (DEG/KT/KT) (MB) (MI) (FT/S) NY HARB ENTRANCE 0550 72 71 260/ 8/ 8 1011.3 4/ 8 4S FIRE IS 0603 69 N/A 4/ 7 20S FIRE ISLAND 0550 70 67 250/ 8/ 10 1011.4 4/ 7 GREAT SOUTH BAY 0615 74 74 320/ 6/ 10 N/A 23SW MTP 0650 68 66 260/ 6/ 8 1011.0 5/ 8 HUDSON CANYON NOT AVBL KINGS POINT 0600 71 66 10/ 5/ 7 1010.9 CENTRAL LI SOUND NOT AVBL EASTERN LI SOUND 0600 66 63 280/ 4/ 4 N/A ROBBINS REEF 0600 74 300/ 7/ 8 1010.6 $$ >>>>>>>>>>>>>>>>>>>>>>>>>>>> KEY <<<<<<<<<<<<<<<<<<<<<<<<<<< > < > SKY/WX - SKY CONDITION/PRESENT WEATHER < > TMP - TEMPERATURE IN FAHRENHEIT < > DP - DEWPOINT IN FAHRENHEIT < > RH - RELATIVE HUMIDITY IN PERCENT < > WIND - DIRECTION AND SPEED IN MPH < > PRES - MEAN SEA LEVEL PRESSURE IN INCHES OF HG < > WCI - WIND CHILL INDEX < > VSB - VISIBILITY IN MILES < > HX - HEAT INDEX < > TC - TEMPERATURE IN CELSIUS < > VRB - VARIABLE WIND DIRECTION < > < >>>>>>>>>>>>>>>>>>>>>>>>>>>> KEY <<<<<<<<<<<<<<<<<<<<<<<<<<<

USA.gov is the U.S. government's official web portal to all federal, state and local government web resources and services.